Location: C&O Canal National Historical Park
(39.6184°N, 77.9938°W)
Time: 01:19:36
(UTC-04:00)

N. Korean satellite - Visible Passes

Search period start: 22 September 2018 00:00
Search period end: 02 October 2018 00:00
Orbit: 458 x 511 km, 97.2° (Epoch: 20 September)

Date Brightness Start Highest point End Pass type
(mag) Time Alt. Az. Time Alt. Az. Time Alt. Az.
22 Sep 10.7 06:26:44 10° E 06:27:19 10° E 06:27:53 10° E visible
23 Sep 9.8 19:42:29 10° SW 19:44:54 18° W 19:47:21 10° NW visible
27 Sep 9.7 19:38:17 10° SW 19:40:55 20° W 19:43:37 10° NW visible
30 Sep 10.4 20:00:25 10° WSW 20:01:28 11° W 20:02:30 10° WNW visible
01 Oct 9.5 19:34:04 10° SSW 19:36:54 22° W 19:39:49 10° NW visible
